Regional Weather Roundup
Issued by NWS Jackson, KY

Home | Current Version | Previous Version | Text Only | Print | Product List | Glossary Off
Versions: 1 2 3 4 5 6 7 8 9 10 11 12 13 14 15 16 17 18 19 20 21 22 23 24 25 26 27 28 29 30 31 32 33 34 35 36 37 38 39 40 41 42 43 44 45 46 47 48 49 50

000
ASUS43 KJKL 230205
RWRJKL

EAST KENTUCKY HOURLY WEATHER ROUNDUP
NATIONAL WEATHER SERVICE JACKSON KY
1000 PM EDT TUE APR 22 2014

NOTE: "FAIR" INDICATES FEW OR NO CLOUDS BELOW 12,000 FEET WITH
NO SIGNIFICANT WEATHER AND/OR OBSTRUCTIONS TO VISIBILITY.

* THESE REPORTS ARE NOT UNDER NWS QUALITY CONTROL AND MAY NOT
  REPORT WEATHER SUCH AS PRECIPITATION AND FOG.

KYZ079-080-083-085-087-088-110-112-115-119-120-230300
...EASTERN KENTUCKY...

CITY           SKY/WX    TMP DP  RH WIND       PRES   REMARKS
JACKSON        PTCLDY    61  32  33 NW9       29.87R
LONDON         CLEAR     63  41  44 N9        29.88R
SOMERSET*      CLEAR     63  32  31 N9        29.90R
WILLIAMSBURG*  CLEAR     63  46  55 CALM      29.88
MIDDLESBORO*   PTCLDY    66  49  55 N10G18    29.86R
HARLAN APT*    CLEAR     63  43  48 N9        29.86R
BLACK MTN*       N/A     52  43  71 VRB8        N/A
PIKEVILLE APT* CLEAR     63  34  34 NW15G22   29.85R
BIG SANDY*     PTCLDY    63  34  33 NW13G18   29.84R
$$

KYZ035-036-041-042-044-050-067-078-099-230300
...CENTRAL KENTUCKY...

CITY           SKY/WX    TMP DP  RH WIND       PRES   REMARKS
MT STERLING*   CLEAR     55  34  44 N8        29.92R
FLEMING/MASON* CLEAR     54  33  45 NW9G21    29.93R
RICHMOND*      CLEAR     57  28  33 N7        29.90R
LEXINGTON      CLEAR     56  34  43 N13       29.92R
FRANKFORT      CLEAR     57  28  33 N9        29.92R
$$

KYZ091>093-OHZ055-061-077-WVZ005-015-034-035-042-230300
...SOUTHERN OHIO/WEST VIRGINIA...

CITY           SKY/WX    TMP DP  RH WIND       PRES   REMARKS
COVINGTON      CLEAR     52  31  44 NW17G29   29.95R
COLUMBUS       MOCLDY    53  33  46 NW16G24   29.88R
DAYTON         MOCLDY    48  31  51 NW14G23   29.96R
WILMINGTON     PTCLDY    49  31  49 NW17G24   29.92R
HUNTINGTON     CLEAR     59  28  30 NW12G22   29.84R
CHARLESTON     PTCLDY    62  28  27 NW22G30   29.81R
PINEVILLE*     PTCLDY    65  46  50 MISG      29.84R
BECKLEY        PTCLDY    61  37  41 NW22G28   29.79R
BLUEFIELD      CLEAR     63  43  48 NW14G24   29.81R
$$

VAZ002-007-008-TNZ017-027-036-066-071-230300
...SOUTHWEST VIRGINIA/EAST TENNESSEE...

CITY           SKY/WX    TMP DP  RH WIND       PRES   REMARKS
WISE*          CLOUDY    61  43  51 NW12G21   29.88R
ABINGDON*      CLOUDY    62  58  87 W7        29.83R
BRISTOL        CLEAR     61  56  83 SW9       29.83R
OAK RIDGE      PTCLDY    66  60  81 N3        29.86R
CROSSVILLE     CLEAR     63  48  58 NW6       29.91R
NASHVILLE      CLEAR     65  41  41 N8        29.92R
$$

...KEY TO REMARKS...
VSB - VISIBILITY IN MILES
WCI - WIND CHILL INDEX
HX  - HEAT INDEX

$$



USA.gov is the U.S. government's official web portal to all federal, state and local government web resources and services.